{"data":{"norad_id":68927,"intl_designator":"2026-098J","name":"KUIPER-00412","alt_names":[],"object_type":"PAYLOAD","status":"ACTIVE","operator":null,"country":"US","launch_date":"2026-04-30","launch_site_code":"FRGUI","launch_vehicle":null,"mission":null,"orbit_class":"UNKNOWN","rcs_meters":null,"size_class":null,"mass_kg":null,"dimensions":null,"purposes":[],"wikipedia_slug":null,"has_3d_model":false,"image_url":null,"decayed_at":null,"tle_current":{"epoch":"2026-05-24T12:18:07.113312Z","epoch_age_seconds":116881,"freshness":"FRESH","line1":"1 68927U 26098J   26144.51258233 -.00017929  00000+0 -49129-3 0  9990","line2":"2 68927  51.8764 181.5941 0002389 136.0910 224.0267 15.36171573  3719","mean_motion":15.36171573,"eccentricity":0.0002389,"inclination_deg":51.8764,"raan_deg":181.5941,"arg_perigee_deg":136.091,"mean_anomaly_deg":224.0267,"bstar":-0.00049129,"rev_number":371,"period_min":93.739529184739,"perigee_km":455.80979284587,"apogee_km":459.07583288045,"semimajor_km":6835.5798128632,"source":"CELESTRAK","updated_at":"2026-05-25T13:38:08.794097Z"}}}